Flag for Germany Weather past 2 weeks in Baden-Baden, Baden-Württemberg, Germany

Now
72 °F

Passing clouds.


Feels Like: 76 °F
Forecast: 40 / 63 °F
Wind: 12 mph from North

Location: Karlsruhe - Baden Wurttemberg

Current Time: Apr 21, 2015 at 4:11:38 PM

Latest Report: Apr 21, 2015 at 3:50 PM


Visibility: N/A

Pressure: 30.33 "Hg

Humidity: 25%

Dew point: 34 °F

Location of Baden-BadenLocation

Historic Weather in Baden-Baden — Graph

°F

Baden-Baden temperature yesterday

Maximum temperature yesterday: 66 °F (at 3:50 PM)
Minimum temperature yesterday: 39 °F (at 4:50 AM)
Average temperature yesterday: 54 °F

Past Weeks' High & Low Weather Summary

 TemperatureHumidityPressure
High79 °F (Apr 15, 3:50 PM)94% (Apr 12, 6:50 AM)30.63 "Hg (Apr 12, 6:50 AM)
Low30 °F (Apr 7, 4:50 AM)17% (Apr 10, 5:20 PM)29.86 "Hg (Apr 17, 5:20 AM)
Average55 °F51%30.25 "Hg
* Reported Apr 6 2:20 PM — Apr 21 2:50 PM, Baden-Baden, Weather by CustomWeather, © 2015

Note: Actual official high and low records may vary slightly from our data, if they occured in-between our weather recording intervals... More about our weather records

Advertising

Baden-Baden weather history for previous 24 hours

 ConditionsComfort  
Time TempWeatherWind HumidityBarometerVisibility
2:50 PM
Tue, Apr 21
68 °FSunny.12 mph28%30.36 "Hg10 mi
2:20 PM68 °FSunny.12 mph30%30.36 "Hg10 mi
1:50 PM66 °FSunny.13 mph32%30.36 "Hg10 mi
1:20 PM66 °FPassing clouds.12 mph35%30.36 "HgN/A
12:50 PM66 °FSunny.12 mph32%30.39 "Hg10 mi
12:20 PM64 °FSunny.12 mph37%30.39 "Hg10 mi
11:50 AM64 °FPassing clouds.9 mph40%30.39 "HgN/A
11:20 AM63 °FPassing clouds.9 mph42%30.39 "HgN/A
10:50 AM59 °FPassing clouds.9 mph48%30.39 "HgN/A
10:20 AM59 °FSunny.9 mph51%30.39 "Hg10 mi
9:50 AM55 °FSunny.8 mph51%30.39 "Hg10 mi
9:20 AM54 °FPassing clouds.7 mph58%30.39 "HgN/A
8:50 AM52 °FSunny.6 mph58%30.39 "Hg10 mi
8:20 AM48 °FSunny.5 mph66%30.39 "Hg10 mi
7:50 AM45 °FSunny.6 mph76%30.36 "Hg10 mi
7:20 AM43 °FClear.6 mph76%30.36 "Hg10 mi
6:50 AM41 °FClear.7 mph81%30.36 "Hg10 mi
6:20 AM43 °FClear.7 mph71%30.33 "Hg10 mi
5:20 AM43 °FClear.7 mph71%30.33 "Hg10 mi
4:50 AM41 °FClear.8 mph76%30.33 "Hg10 mi
11:50 PM
Mon, Apr 20
48 °FClear.1 mph58%30.30 "Hg10 mi
11:20 PM48 °FClear.1 mph62%30.30 "Hg10 mi
10:50 PM52 °FClear.1 mph50%30.30 "Hg10 mi
10:20 PM54 °FClear.2 mph47%30.30 "Hg10 mi
9:50 PM57 °FClear.3 mph41%30.27 "Hg10 mi
9:20 PM59 °FSunny.5 mph36%30.27 "Hg10 mi
8:50 PM61 °FSunny.6 mph34%30.27 "Hg10 mi
8:20 PM63 °FSunny.7 mph32%30.24 "Hg10 mi
7:50 PM63 °FSunny.8 mph32%30.24 "Hg10 mi
7:20 PM64 °FSunny.7 mph30%30.24 "Hg10 mi
6:50 PM66 °FSunny.9 mph28%30.24 "Hg10 mi
6:20 PM66 °FPassing clouds.8 mph28%30.21 "HgN/A
5:50 PM66 °FSunny.9 mph28%30.24 "Hg10 mi
5:20 PM66 °FPassing clouds.13 mph26%30.24 "HgN/A
4:50 PM66 °FPassing clouds.12 mph28%30.24 "HgN/A
4:20 PM66 °FSunny.12 mph30%30.24 "Hg10 mi
Weather by CustomWeather, © 2015

See weather overviewHow to use our weather pages